Year,Month,Day,Hour,Minute,Value (Times are PST for temperature in C)
2015,10,21,00,00,11.20
2015,10,21,00,01,11.10
2015,10,21,00,02,11.10
2015,10,21,00,03,11.10
2015,10,21,00,04,11.10
2015,10,21,00,05,11.10
2015,10,21,00,06,11.10
2015,10,21,00,07,11.10
2015,10,21,00,08,11.10
2015,10,21,00,09,11.10
2015,10,21,00,10,11.10
2015,10,21,00,11,11.10
2015,10,21,00,12,11.10
2015,10,21,00,13,11.10
2015,10,21,00,14,11.10
2015,10,21,00,15,11.10
2015,10,21,00,16,11.10
2015,10,21,00,17,11.10
2015,10,21,00,18,11.10
2015,10,21,00,19,11.00
2015,10,21,00,20,11.00
2015,10,21,00,21,11.00
2015,10,21,00,22,11.00
2015,10,21,00,23,11.00
2015,10,21,00,24,10.90
2015,10,21,00,25,10.90
2015,10,21,00,26,10.90
2015,10,21,00,27,11.00
2015,10,21,00,28,11.00
2015,10,21,00,29,11.00
2015,10,21,00,30,11.00
2015,10,21,00,31,11.00
2015,10,21,00,32,11.00
2015,10,21,00,33,11.00
2015,10,21,00,34,11.00
2015,10,21,00,35,11.00
2015,10,21,00,36,11.00
2015,10,21,00,37,11.00
2015,10,21,00,38,11.00
2015,10,21,00,39,11.00
2015,10,21,00,40,11.00
2015,10,21,00,41,10.90
2015,10,21,00,42,10.90
2015,10,21,00,43,10.90
2015,10,21,00,44,10.90
2015,10,21,00,45,10.90
2015,10,21,00,46,10.90
2015,10,21,00,47,10.90
2015,10,21,00,48,10.90
2015,10,21,00,49,10.90
2015,10,21,00,50,10.90
2015,10,21,00,51,10.90
2015,10,21,00,52,10.90
2015,10,21,00,53,10.90
2015,10,21,00,54,10.90
2015,10,21,00,55,10.90
2015,10,21,00,56,10.90
2015,10,21,00,57,10.90
2015,10,21,00,58,10.90
2015,10,21,00,59,10.90
2015,10,21,01,00,10.90
2015,10,21,01,01,11.00
2015,10,21,01,02,11.00
2015,10,21,01,03,11.00
2015,10,21,01,04,11.00
2015,10,21,01,05,11.00
2015,10,21,01,06,11.00
2015,10,21,01,07,11.00
2015,10,21,01,08,11.00
2015,10,21,01,09,11.00
2015,10,21,01,10,11.10
2015,10,21,01,11,11.10
2015,10,21,01,12,11.10
2015,10,21,01,13,11.10
2015,10,21,01,14,11.10
2015,10,21,01,15,11.10
2015,10,21,01,16,11.10
2015,10,21,01,17,11.10
2015,10,21,01,18,11.00
2015,10,21,01,19,11.00
2015,10,21,01,20,11.00
2015,10,21,01,21,11.00
2015,10,21,01,22,11.00
2015,10,21,01,23,11.00
2015,10,21,01,24,11.00
2015,10,21,01,25,11.00
2015,10,21,01,26,11.00
2015,10,21,01,27,11.00
2015,10,21,01,28,11.00
2015,10,21,01,29,11.00
2015,10,21,01,30,11.00
2015,10,21,01,31,11.00
2015,10,21,01,32,11.00
2015,10,21,01,33,11.00
2015,10,21,01,34,11.00
2015,10,21,01,35,10.90
2015,10,21,01,36,10.90
2015,10,21,01,37,10.90
2015,10,21,01,38,10.90
2015,10,21,01,39,10.90
2015,10,21,01,40,11.00
2015,10,21,01,41,11.00
2015,10,21,01,42,11.00
2015,10,21,01,43,11.00
2015,10,21,01,44,11.00
2015,10,21,01,45,11.00
2015,10,21,01,46,11.00
2015,10,21,01,47,11.00
2015,10,21,01,48,11.00
2015,10,21,01,49,11.00
2015,10,21,01,50,11.00
2015,10,21,01,51,11.00
2015,10,21,01,52,11.00
2015,10,21,01,53,11.00
2015,10,21,01,54,11.00
2015,10,21,01,55,11.10
2015,10,21,01,56,11.10
2015,10,21,01,57,11.10
2015,10,21,01,58,11.10
2015,10,21,01,59,11.10
2015,10,21,02,00,11.10
2015,10,21,02,01,11.10
2015,10,21,02,02,11.10
2015,10,21,02,03,11.20
2015,10,21,02,04,11.20
2015,10,21,02,05,11.20
2015,10,21,02,06,11.20
2015,10,21,02,07,11.20
2015,10,21,02,08,11.20
2015,10,21,02,09,11.20
2015,10,21,02,10,11.30
2015,10,21,02,11,11.30
2015,10,21,02,12,11.30
2015,10,21,02,13,11.20
2015,10,21,02,14,11.30
2015,10,21,02,15,11.30
2015,10,21,02,16,11.30
2015,10,21,02,17,11.40
2015,10,21,02,18,11.40
2015,10,21,02,19,11.40
2015,10,21,02,20,11.40
2015,10,21,02,21,11.40
2015,10,21,02,22,11.40
2015,10,21,02,23,11.40
2015,10,21,02,24,11.40
2015,10,21,02,25,11.30
2015,10,21,02,26,11.30
2015,10,21,02,27,11.30
2015,10,21,02,28,11.30
2015,10,21,02,29,11.30
2015,10,21,02,30,11.30
2015,10,21,02,31,11.30
2015,10,21,02,32,11.30
2015,10,21,02,33,11.30
2015,10,21,02,34,11.30
2015,10,21,02,35,11.30
2015,10,21,02,36,11.30
2015,10,21,02,37,11.30
2015,10,21,02,38,11.30
2015,10,21,02,39,11.30
2015,10,21,02,40,11.30
2015,10,21,02,41,11.30
2015,10,21,02,42,11.30
2015,10,21,02,43,11.30
2015,10,21,02,44,11.30
2015,10,21,02,45,11.30
2015,10,21,02,46,11.30
2015,10,21,02,47,11.30
2015,10,21,02,48,11.20
2015,10,21,02,49,11.20
2015,10,21,02,50,11.20
2015,10,21,02,51,11.20
2015,10,21,02,52,11.20
2015,10,21,02,53,11.20
2015,10,21,02,54,11.20
2015,10,21,02,55,11.20
2015,10,21,02,56,11.20
2015,10,21,02,57,11.20
2015,10,21,02,58,11.20
2015,10,21,02,59,11.10
2015,10,21,03,00,11.10
2015,10,21,03,01,11.10
2015,10,21,03,02,11.10
2015,10,21,03,03,11.10
2015,10,21,03,04,11.10
2015,10,21,03,05,11.00
2015,10,21,03,06,11.00
2015,10,21,03,07,11.10
2015,10,21,03,08,11.10
2015,10,21,03,09,11.10
2015,10,21,03,10,11.10
2015,10,21,03,11,11.20
2015,10,21,03,12,11.20
2015,10,21,03,13,11.20
2015,10,21,03,14,11.20
2015,10,21,03,15,11.20
2015,10,21,03,16,11.20
2015,10,21,03,17,11.20
2015,10,21,03,18,11.20
2015,10,21,03,19,11.20
2015,10,21,03,20,11.20
2015,10,21,03,21,11.20
2015,10,21,03,22,11.20
2015,10,21,03,23,11.20
2015,10,21,03,24,11.20
2015,10,21,03,25,11.10
2015,10,21,03,26,11.10
2015,10,21,03,27,11.10
2015,10,21,03,28,11.10
2015,10,21,03,29,11.00
2015,10,21,03,30,11.00
2015,10,21,03,31,11.10
2015,10,21,03,32,11.10
2015,10,21,03,33,11.10
2015,10,21,03,34,11.10
2015,10,21,03,35,11.10
2015,10,21,03,36,11.10
2015,10,21,03,37,11.10
2015,10,21,03,38,11.10
2015,10,21,03,39,11.10
2015,10,21,03,40,11.10
2015,10,21,03,41,11.10
2015,10,21,03,42,11.10
2015,10,21,03,43,11.00
2015,10,21,03,44,11.00
2015,10,21,03,45,11.00
2015,10,21,03,46,11.00
2015,10,21,03,47,11.00
2015,10,21,03,48,11.00
2015,10,21,03,49,10.90
2015,10,21,03,50,10.90
2015,10,21,03,51,10.90
2015,10,21,03,52,10.90
2015,10,21,03,53,10.80
2015,10,21,03,54,10.80
2015,10,21,03,55,10.80
2015,10,21,03,56,10.80
2015,10,21,03,57,10.80
2015,10,21,03,58,10.80
2015,10,21,03,59,10.70
2015,10,21,04,00,10.70
2015,10,21,04,01,10.70
2015,10,21,04,02,10.70
2015,10,21,04,03,10.70
2015,10,21,04,04,10.60
2015,10,21,04,05,10.60
2015,10,21,04,06,10.60
2015,10,21,04,07,10.60
2015,10,21,04,08,10.60
2015,10,21,04,09,10.60
2015,10,21,04,10,10.60
2015,10,21,04,11,10.60
2015,10,21,04,12,10.60
2015,10,21,04,13,10.60
2015,10,21,04,14,10.60
2015,10,21,04,15,10.60
2015,10,21,04,16,10.60
2015,10,21,04,17,10.60
2015,10,21,04,18,10.60
2015,10,21,04,19,10.50
2015,10,21,04,20,10.50
2015,10,21,04,21,10.50
2015,10,21,04,22,10.50
2015,10,21,04,23,10.40
2015,10,21,04,24,10.40
2015,10,21,04,25,10.40
2015,10,21,04,26,10.40
2015,10,21,04,27,10.40
2015,10,21,04,28,10.40
2015,10,21,04,29,10.40
2015,10,21,04,30,10.40
2015,10,21,04,31,10.40
2015,10,21,04,32,10.40
2015,10,21,04,33,10.40
2015,10,21,04,34,10.40
2015,10,21,04,35,10.40
2015,10,21,04,36,10.40
2015,10,21,04,37,10.40
2015,10,21,04,38,10.40
2015,10,21,04,39,10.40
2015,10,21,04,40,10.40
2015,10,21,04,41,10.40
2015,10,21,04,42,10.40
2015,10,21,04,43,10.40
2015,10,21,04,44,10.40
2015,10,21,04,45,10.40
2015,10,21,04,46,10.40
2015,10,21,04,47,10.40
2015,10,21,04,48,10.40
2015,10,21,04,49,10.30
2015,10,21,04,50,10.30
2015,10,21,04,51,10.30
2015,10,21,04,52,10.30
2015,10,21,04,53,10.30
2015,10,21,04,54,10.20
2015,10,21,04,55,10.20
2015,10,21,04,56,10.20
2015,10,21,04,57,10.20
2015,10,21,04,58,10.20
2015,10,21,04,59,10.20
2015,10,21,05,00,10.20
2015,10,21,05,01,10.20
2015,10,21,05,02,10.20
2015,10,21,05,03,10.20
2015,10,21,05,04,10.20
2015,10,21,05,05,10.20
2015,10,21,05,06,10.20
2015,10,21,05,07,10.20
2015,10,21,05,08,10.20
2015,10,21,05,09,10.20
2015,10,21,05,10,10.20
2015,10,21,05,11,10.20
2015,10,21,05,12,10.20
2015,10,21,05,13,10.20
2015,10,21,05,14,10.10
2015,10,21,05,15,10.10
2015,10,21,05,16,10.10
2015,10,21,05,17,10.10
2015,10,21,05,18,10.10
2015,10,21,05,19,10.10
2015,10,21,05,20,10.10
2015,10,21,05,21,10.10
2015,10,21,05,22,10.10
2015,10,21,05,23,10.10
2015,10,21,05,24,10.10
2015,10,21,05,25,10.10
2015,10,21,05,26,10.10
2015,10,21,05,27,10.10
2015,10,21,05,28,10.10
2015,10,21,05,29,10.10
2015,10,21,05,30,10.10
2015,10,21,05,31,10.10
2015,10,21,05,32,10.10
2015,10,21,05,33,10.10
2015,10,21,05,34,10.10
2015,10,21,05,35,10.10
2015,10,21,05,36,10.10
2015,10,21,05,37,10.10
2015,10,21,05,38,10.10
2015,10,21,05,39,10.10
2015,10,21,05,40,10.10
2015,10,21,05,41,10.10
2015,10,21,05,42,10.10
2015,10,21,05,43,10.00
2015,10,21,05,44,10.00
2015,10,21,05,45,10.00
2015,10,21,05,46,10.00
2015,10,21,05,47,10.00
2015,10,21,05,48,10.00
2015,10,21,05,49,10.00
2015,10,21,05,50,10.00
2015,10,21,05,51,10.00
2015,10,21,05,52,10.00
2015,10,21,05,53,10.00
2015,10,21,05,54,10.00
2015,10,21,05,55,10.00
2015,10,21,05,56,10.00
2015,10,21,05,57,10.00
2015,10,21,05,58,10.00
2015,10,21,05,59,10.00
2015,10,21,06,00,10.00
2015,10,21,06,01,10.00
2015,10,21,06,02,10.00
2015,10,21,06,03,10.00
2015,10,21,06,04,10.00
2015,10,21,06,05,10.00
2015,10,21,06,06,10.00
2015,10,21,06,07,10.00
2015,10,21,06,08,10.00
2015,10,21,06,09,10.10
2015,10,21,06,10,10.00
2015,10,21,06,11,10.00
2015,10,21,06,12,10.00
2015,10,21,06,13,10.00
2015,10,21,06,14,10.00
2015,10,21,06,15,10.00
2015,10,21,06,16,10.00
2015,10,21,06,17,10.00
2015,10,21,06,18,10.00
2015,10,21,06,19,10.00
2015,10,21,06,20,10.00
2015,10,21,06,21,10.00
2015,10,21,06,22,10.00
2015,10,21,06,23,10.00
2015,10,21,06,24,10.00
2015,10,21,06,25,10.00
2015,10,21,06,26,10.00
2015,10,21,06,27,9.90
2015,10,21,06,28,10.00
2015,10,21,06,29,10.00
2015,10,21,06,30,10.00
2015,10,21,06,31,10.00
2015,10,21,06,32,10.00
2015,10,21,06,33,10.00
2015,10,21,06,34,10.00
2015,10,21,06,35,10.00
2015,10,21,06,36,10.00
2015,10,21,06,37,10.00
2015,10,21,06,38,10.00
2015,10,21,06,39,10.00
2015,10,21,06,40,10.00
2015,10,21,06,41,10.00
2015,10,21,06,42,10.00
2015,10,21,06,43,9.90
2015,10,21,06,44,9.90
2015,10,21,06,45,9.90
2015,10,21,06,46,10.00
2015,10,21,06,47,9.90
2015,10,21,06,48,10.00
2015,10,21,06,49,10.00
2015,10,21,06,50,10.00
2015,10,21,06,51,10.00
2015,10,21,06,52,10.00
2015,10,21,06,53,10.00
2015,10,21,06,54,10.00
2015,10,21,06,55,10.00
2015,10,21,06,56,10.00
2015,10,21,06,57,10.00
2015,10,21,06,58,10.00
2015,10,21,06,59,10.00
2015,10,21,07,00,10.00
2015,10,21,07,01,10.00
2015,10,21,07,02,10.00
2015,10,21,07,03,10.00
2015,10,21,07,04,10.00
2015,10,21,07,05,10.00
2015,10,21,07,06,10.00
2015,10,21,07,07,10.00
2015,10,21,07,08,10.00
2015,10,21,07,09,10.00
2015,10,21,07,10,10.00
2015,10,21,07,11,10.00
2015,10,21,07,12,10.00
2015,10,21,07,13,10.10
2015,10,21,07,14,10.10
2015,10,21,07,15,10.10
2015,10,21,07,16,10.10
2015,10,21,07,17,10.10
2015,10,21,07,18,10.10
2015,10,21,07,19,10.10
2015,10,21,07,20,10.10
2015,10,21,07,21,10.10
2015,10,21,07,22,10.10
2015,10,21,07,23,10.10
2015,10,21,07,24,10.10
2015,10,21,07,25,10.10
2015,10,21,07,26,10.10
2015,10,21,07,27,10.10
2015,10,21,07,28,10.10
2015,10,21,07,29,10.10
2015,10,21,07,30,10.10
2015,10,21,07,31,10.10
2015,10,21,07,32,10.10
2015,10,21,07,33,10.10
2015,10,21,07,34,10.10
2015,10,21,07,35,10.10
2015,10,21,07,36,10.10
2015,10,21,07,37,10.10
2015,10,21,07,38,10.10
2015,10,21,07,39,10.10
2015,10,21,07,40,10.10
2015,10,21,07,41,10.10
2015,10,21,07,42,10.10
2015,10,21,07,43,10.10
2015,10,21,07,44,10.10
2015,10,21,07,45,10.10
2015,10,21,07,46,10.10
2015,10,21,07,47,10.10
2015,10,21,07,48,10.10
2015,10,21,07,49,10.10
2015,10,21,07,50,10.10
2015,10,21,07,51,10.10
2015,10,21,07,52,10.10
2015,10,21,07,53,10.10
2015,10,21,07,54,10.10
2015,10,21,07,55,10.10
2015,10,21,07,56,10.10
2015,10,21,07,57,10.10
2015,10,21,07,58,10.10
2015,10,21,07,59,10.10
2015,10,21,08,00,10.10
2015,10,21,08,01,10.10
2015,10,21,08,02,10.10
2015,10,21,08,03,10.10
2015,10,21,08,04,10.10
2015,10,21,08,05,10.10
2015,10,21,08,06,10.10
2015,10,21,08,07,10.10
2015,10,21,08,08,10.10
2015,10,21,08,09,10.10
2015,10,21,08,10,10.10
2015,10,21,08,11,10.10
2015,10,21,08,12,10.10
2015,10,21,08,13,10.10
2015,10,21,08,14,10.10
2015,10,21,08,15,10.10
2015,10,21,08,16,10.10
2015,10,21,08,17,10.10
2015,10,21,08,18,10.10
2015,10,21,08,19,10.10
2015,10,21,08,20,10.10
2015,10,21,08,21,10.10
2015,10,21,08,22,10.10
2015,10,21,08,23,10.10
2015,10,21,08,24,10.10
2015,10,21,08,25,10.10
2015,10,21,08,26,10.10
2015,10,21,08,27,10.10
2015,10,21,08,28,10.10
2015,10,21,08,29,10.10
2015,10,21,08,30,10.10
2015,10,21,08,31,10.10
2015,10,21,08,32,10.10
2015,10,21,08,33,10.10
2015,10,21,08,34,10.10
2015,10,21,08,35,10.10
2015,10,21,08,36,10.10
2015,10,21,08,37,10.10
2015,10,21,08,38,10.10
2015,10,21,08,39,10.10
2015,10,21,08,40,10.10
2015,10,21,08,41,10.10
2015,10,21,08,42,10.10
2015,10,21,08,43,10.10
2015,10,21,08,44,10.10
2015,10,21,08,45,10.10
2015,10,21,08,46,10.10
2015,10,21,08,47,10.10
2015,10,21,08,48,10.10
2015,10,21,08,49,10.10
2015,10,21,08,50,10.10
2015,10,21,08,51,10.10
2015,10,21,08,52,10.10
2015,10,21,08,53,10.10
2015,10,21,08,54,10.10
2015,10,21,08,55,10.10
2015,10,21,08,56,10.10
2015,10,21,08,57,10.10
2015,10,21,08,58,10.10
2015,10,21,08,59,10.10
2015,10,21,09,00,10.10
2015,10,21,09,01,10.10
2015,10,21,09,02,10.10
2015,10,21,09,03,10.10
2015,10,21,09,04,10.10
2015,10,21,09,05,10.10
2015,10,21,09,06,10.10
2015,10,21,09,07,10.10
2015,10,21,09,08,10.10
2015,10,21,09,09,10.10
2015,10,21,09,10,10.10
2015,10,21,09,11,10.20
2015,10,21,09,12,10.20
2015,10,21,09,13,10.20
2015,10,21,09,14,10.20
2015,10,21,09,15,10.20
2015,10,21,09,16,10.20
2015,10,21,09,17,10.20
2015,10,21,09,18,10.20
2015,10,21,09,19,10.20
2015,10,21,09,20,10.20
2015,10,21,09,21,10.20
2015,10,21,09,22,10.20
2015,10,21,09,23,10.20
2015,10,21,09,24,10.20
2015,10,21,09,25,10.20
2015,10,21,09,26,10.20
2015,10,21,09,27,10.20
2015,10,21,09,28,10.20
2015,10,21,09,29,10.20
2015,10,21,09,30,10.20
2015,10,21,09,31,10.20
2015,10,21,09,32,10.20
2015,10,21,09,33,10.20
2015,10,21,09,34,10.20
2015,10,21,09,35,10.20
2015,10,21,09,36,10.20
2015,10,21,09,37,10.20
2015,10,21,09,38,10.20
2015,10,21,09,39,10.20
2015,10,21,09,40,10.20
2015,10,21,09,41,10.20
2015,10,21,09,42,10.20
2015,10,21,09,43,10.30
2015,10,21,09,44,10.30
2015,10,21,09,45,10.30
2015,10,21,09,46,10.30
2015,10,21,09,47,10.30
2015,10,21,09,48,10.30
2015,10,21,09,49,10.30
2015,10,21,09,50,10.30
2015,10,21,09,51,10.30
2015,10,21,09,52,10.40
2015,10,21,09,53,10.40
2015,10,21,09,54,10.40
2015,10,21,09,55,10.40
2015,10,21,09,56,10.40
2015,10,21,09,57,10.40
2015,10,21,09,58,10.40
2015,10,21,09,59,10.40
2015,10,21,10,00,10.40
2015,10,21,10,01,10.40
2015,10,21,10,02,10.40
2015,10,21,10,03,10.50
2015,10,21,10,04,10.50
2015,10,21,10,05,10.50
2015,10,21,10,06,10.50
2015,10,21,10,07,10.50
2015,10,21,10,08,10.60
2015,10,21,10,09,10.60
2015,10,21,10,10,10.60
2015,10,21,10,11,10.60
2015,10,21,10,12,10.60
2015,10,21,10,13,10.60
2015,10,21,10,14,10.60
2015,10,21,10,15,10.60
2015,10,21,10,16,10.60
2015,10,21,10,17,10.60
2015,10,21,10,18,10.60
2015,10,21,10,19,10.60
2015,10,21,10,20,10.60
2015,10,21,10,21,10.70
2015,10,21,10,22,10.70
2015,10,21,10,23,10.70
2015,10,21,10,24,10.70
2015,10,21,10,25,10.70
2015,10,21,10,26,10.70
2015,10,21,10,27,10.70
2015,10,21,10,28,10.70
2015,10,21,10,29,10.70
2015,10,21,10,30,10.70
2015,10,21,10,31,10.70
2015,10,21,10,32,10.70
2015,10,21,10,33,10.70
2015,10,21,10,34,10.70
2015,10,21,10,35,10.70
2015,10,21,10,36,10.70
2015,10,21,10,37,10.70
2015,10,21,10,38,10.70
2015,10,21,10,39,10.70
2015,10,21,10,40,10.70
2015,10,21,10,41,10.80
2015,10,21,10,42,10.80
2015,10,21,10,43,10.80
2015,10,21,10,44,10.80
2015,10,21,10,45,10.80
2015,10,21,10,46,10.80
2015,10,21,10,47,10.80
2015,10,21,10,48,10.90
2015,10,21,10,49,10.90
2015,10,21,10,50,10.90
2015,10,21,10,51,11.00
2015,10,21,10,52,11.00
2015,10,21,10,53,11.10
2015,10,21,10,54,11.10
2015,10,21,10,55,11.10
2015,10,21,10,56,11.10
2015,10,21,10,57,11.10
2015,10,21,10,58,11.10
2015,10,21,10,59,11.10
2015,10,21,11,00,11.20
2015,10,21,11,01,11.20
2015,10,21,11,02,11.20
2015,10,21,11,03,11.20
2015,10,21,11,04,11.20
2015,10,21,11,05,11.20
2015,10,21,11,06,11.20
2015,10,21,11,07,11.20
2015,10,21,11,08,11.20
2015,10,21,11,09,11.20
2015,10,21,11,10,11.30
2015,10,21,11,11,11.30
2015,10,21,11,12,11.30
2015,10,21,11,13,11.30
2015,10,21,11,14,11.30
2015,10,21,11,15,11.40
2015,10,21,11,16,11.40
2015,10,21,11,17,11.40
2015,10,21,11,18,11.40
2015,10,21,11,19,11.50
2015,10,21,11,20,11.50
2015,10,21,11,21,11.60
2015,10,21,11,22,11.60
2015,10,21,11,23,11.70
2015,10,21,11,24,11.70
2015,10,21,11,25,11.70
2015,10,21,11,26,11.70
2015,10,21,11,27,11.70
2015,10,21,11,28,11.70
2015,10,21,11,29,11.70
2015,10,21,11,30,11.70
2015,10,21,11,31,11.70
2015,10,21,11,32,11.70
2015,10,21,11,33,11.80
2015,10,21,11,34,11.80
2015,10,21,11,35,11.80
2015,10,21,11,36,11.80
2015,10,21,11,37,11.80
2015,10,21,11,38,11.80
2015,10,21,11,39,11.80
2015,10,21,11,40,11.80
2015,10,21,11,41,11.90
2015,10,21,11,42,11.80
2015,10,21,11,43,11.80
2015,10,21,11,44,11.80
2015,10,21,11,45,11.80
2015,10,21,11,46,11.80
2015,10,21,11,47,11.80
2015,10,21,11,48,11.80
2015,10,21,11,49,11.80
2015,10,21,11,50,11.80
2015,10,21,11,51,11.80
2015,10,21,11,52,11.80
2015,10,21,11,53,11.80
2015,10,21,11,54,11.80
2015,10,21,11,55,11.80
2015,10,21,11,56,11.80
2015,10,21,11,57,11.90
2015,10,21,11,58,11.90
2015,10,21,11,59,11.90
2015,10,21,12,00,12.00
2015,10,21,12,01,12.00
2015,10,21,12,02,12.10
2015,10,21,12,03,12.10
2015,10,21,12,04,12.10
2015,10,21,12,05,12.10
2015,10,21,12,06,12.20
2015,10,21,12,07,12.30
2015,10,21,12,08,12.30
2015,10,21,12,09,12.40
2015,10,21,12,10,12.40
2015,10,21,12,11,12.50
2015,10,21,12,12,12.50
2015,10,21,12,13,12.60
2015,10,21,12,14,12.60
2015,10,21,12,15,12.70
2015,10,21,12,16,12.80
2015,10,21,12,17,12.80
2015,10,21,12,18,12.80
2015,10,21,12,19,12.90
2015,10,21,12,20,12.90
2015,10,21,12,21,13.00
2015,10,21,12,22,13.10
2015,10,21,12,23,13.10
2015,10,21,12,24,13.20
2015,10,21,12,25,13.30
2015,10,21,12,26,13.30
2015,10,21,12,27,13.30
2015,10,21,12,28,13.30
2015,10,21,12,29,13.30
2015,10,21,12,30,13.30
2015,10,21,12,31,13.30
2015,10,21,12,32,13.30
2015,10,21,12,33,13.30
2015,10,21,12,34,13.20
2015,10,21,12,35,13.20
2015,10,21,12,36,13.20
2015,10,21,12,37,13.20
2015,10,21,12,38,13.20
2015,10,21,12,39,13.20
2015,10,21,12,40,13.10
2015,10,21,12,41,13.10
2015,10,21,12,42,13.10
2015,10,21,12,43,13.00
2015,10,21,12,44,13.00
2015,10,21,12,45,12.90
2015,10,21,12,46,12.90
2015,10,21,12,47,12.90
2015,10,21,12,48,12.90
2015,10,21,12,49,12.80
2015,10,21,12,50,12.80
2015,10,21,12,51,12.80
2015,10,21,12,52,12.80
2015,10,21,12,53,12.80
2015,10,21,12,54,12.80
2015,10,21,12,55,12.80
2015,10,21,12,56,12.80
2015,10,21,12,57,12.80
2015,10,21,12,58,12.80
2015,10,21,12,59,12.80
2015,10,21,13,00,12.80
2015,10,21,13,01,12.70
2015,10,21,13,02,12.70
2015,10,21,13,03,12.70
2015,10,21,13,04,12.70
2015,10,21,13,05,12.70
2015,10,21,13,06,12.70
2015,10,21,13,07,12.70
2015,10,21,13,08,12.70
2015,10,21,13,09,12.70
2015,10,21,13,10,12.70
2015,10,21,13,11,12.70
2015,10,21,13,12,12.70
2015,10,21,13,13,12.70
2015,10,21,13,14,12.70
2015,10,21,13,15,12.60
2015,10,21,13,16,12.60
2015,10,21,13,17,12.60
2015,10,21,13,18,12.60
2015,10,21,13,19,12.70
2015,10,21,13,20,12.70
2015,10,21,13,21,12.70
2015,10,21,13,22,12.80
2015,10,21,13,23,12.70
2015,10,21,13,24,12.70
2015,10,21,13,25,12.80
2015,10,21,13,26,12.80
2015,10,21,13,27,12.90
2015,10,21,13,28,12.90
2015,10,21,13,29,12.90
2015,10,21,13,30,12.80
2015,10,21,13,31,12.80
2015,10,21,13,32,12.90
2015,10,21,13,33,12.90
2015,10,21,13,34,12.90
2015,10,21,13,35,12.90
2015,10,21,13,36,12.90
2015,10,21,13,37,12.90
2015,10,21,13,38,12.90
2015,10,21,13,39,12.90
2015,10,21,13,40,12.90
2015,10,21,13,41,12.90
2015,10,21,13,42,12.90
2015,10,21,13,43,12.90
2015,10,21,13,44,12.90
2015,10,21,13,45,12.90
2015,10,21,13,46,12.90
2015,10,21,13,47,12.80
2015,10,21,13,48,12.90
2015,10,21,13,49,12.90
2015,10,21,13,50,12.90
2015,10,21,13,51,12.90
2015,10,21,13,52,12.90
2015,10,21,13,53,12.90
2015,10,21,13,54,12.90
2015,10,21,13,55,12.90
2015,10,21,13,56,12.90
2015,10,21,13,57,12.90
2015,10,21,13,58,12.90
2015,10,21,13,59,12.90
2015,10,21,14,00,12.90
2015,10,21,14,01,12.90
2015,10,21,14,02,13.00
2015,10,21,14,03,13.00
2015,10,21,14,04,13.00
2015,10,21,14,05,13.00
2015,10,21,14,06,13.00
2015,10,21,14,07,13.00
2015,10,21,14,08,13.00
2015,10,21,14,09,13.00
2015,10,21,14,10,13.00
2015,10,21,14,11,13.00
2015,10,21,14,12,13.00
2015,10,21,14,13,13.10
2015,10,21,14,14,13.10
2015,10,21,14,15,13.10
2015,10,21,14,16,13.10
2015,10,21,14,17,13.10
2015,10,21,14,18,13.10
2015,10,21,14,19,13.10
2015,10,21,14,20,13.10
2015,10,21,14,21,13.10
2015,10,21,14,22,13.10
2015,10,21,14,23,13.10
2015,10,21,14,24,13.00
2015,10,21,14,25,13.00
2015,10,21,14,26,13.00
2015,10,21,14,27,13.00
2015,10,21,14,28,13.00
2015,10,21,14,29,13.00
2015,10,21,14,30,13.00
2015,10,21,14,31,13.00
2015,10,21,14,32,13.10
2015,10,21,14,33,13.00
2015,10,21,14,34,13.00
2015,10,21,14,35,13.10
2015,10,21,14,36,13.10
2015,10,21,14,37,13.10
2015,10,21,14,38,13.10
2015,10,21,14,39,13.10
2015,10,21,14,40,13.10
2015,10,21,14,41,13.10
2015,10,21,14,42,13.20
2015,10,21,14,43,13.20
2015,10,21,14,44,13.20
2015,10,21,14,45,13.20
2015,10,21,14,46,13.20
2015,10,21,14,47,13.20
2015,10,21,14,48,13.20
2015,10,21,14,49,13.10
2015,10,21,14,50,13.10
2015,10,21,14,51,13.10
2015,10,21,14,52,13.10
2015,10,21,14,53,13.10
2015,10,21,14,54,13.20
2015,10,21,14,55,13.20
2015,10,21,14,56,13.20
2015,10,21,14,57,13.30
2015,10,21,14,58,13.30
2015,10,21,14,59,13.30
2015,10,21,15,00,13.30
2015,10,21,15,01,13.30
2015,10,21,15,02,13.40
2015,10,21,15,03,13.40
2015,10,21,15,04,13.40
2015,10,21,15,05,13.40
2015,10,21,15,06,13.40
2015,10,21,15,07,13.40
2015,10,21,15,08,13.40
2015,10,21,15,09,13.40
2015,10,21,15,10,13.40
2015,10,21,15,11,13.30
2015,10,21,15,12,13.30
2015,10,21,15,13,13.30
2015,10,21,15,14,13.30
2015,10,21,15,15,13.30
2015,10,21,15,16,13.30
2015,10,21,15,17,13.30
2015,10,21,15,18,13.30
2015,10,21,15,19,13.30
2015,10,21,15,20,13.30
2015,10,21,15,21,13.30
2015,10,21,15,22,13.30
2015,10,21,15,23,13.30
2015,10,21,15,24,13.30
2015,10,21,15,25,13.30
2015,10,21,15,26,13.30
2015,10,21,15,27,13.30
2015,10,21,15,28,13.30
2015,10,21,15,29,13.30
2015,10,21,15,30,13.30
2015,10,21,15,31,13.30
2015,10,21,15,32,13.20
2015,10,21,15,33,13.20
2015,10,21,15,34,13.20
2015,10,21,15,35,13.20
2015,10,21,15,36,13.20
2015,10,21,15,37,13.20
2015,10,21,15,38,13.20
2015,10,21,15,39,13.20
2015,10,21,15,40,13.20
2015,10,21,15,41,13.20
2015,10,21,15,42,13.20
2015,10,21,15,43,13.10
2015,10,21,15,44,13.10
2015,10,21,15,45,13.20
2015,10,21,15,46,13.20
2015,10,21,15,47,13.10
2015,10,21,15,48,13.10
2015,10,21,15,49,13.20
2015,10,21,15,50,13.20
2015,10,21,15,51,13.20
2015,10,21,15,52,13.20
2015,10,21,15,53,13.10
2015,10,21,15,54,13.10
2015,10,21,15,55,13.20
2015,10,21,15,56,13.20
2015,10,21,15,57,13.30
2015,10,21,15,58,13.20
2015,10,21,15,59,13.30
2015,10,21,16,00,13.30
2015,10,21,16,01,13.30
2015,10,21,16,02,13.30
2015,10,21,16,03,13.20
2015,10,21,16,04,13.20
2015,10,21,16,05,13.10
2015,10,21,16,06,13.10
2015,10,21,16,07,13.10
2015,10,21,16,08,13.10
2015,10,21,16,09,13.10
2015,10,21,16,10,13.10
2015,10,21,16,11,13.00
2015,10,21,16,12,13.00
2015,10,21,16,13,13.00
2015,10,21,16,14,13.00
2015,10,21,16,15,12.90
2015,10,21,16,16,12.90
2015,10,21,16,17,12.90
2015,10,21,16,18,12.90
2015,10,21,16,19,12.90
2015,10,21,16,20,12.90
2015,10,21,16,21,12.80
2015,10,21,16,22,12.80
2015,10,21,16,23,12.80
2015,10,21,16,24,12.80
2015,10,21,16,25,12.80
2015,10,21,16,26,12.70
2015,10,21,16,27,12.70
2015,10,21,16,28,12.70
2015,10,21,16,29,12.70
2015,10,21,16,30,12.70
2015,10,21,16,31,12.70
2015,10,21,16,32,12.60
2015,10,21,16,33,12.60
2015,10,21,16,34,12.60
2015,10,21,16,35,12.60
2015,10,21,16,36,12.50
2015,10,21,16,37,12.50
2015,10,21,16,38,12.50
2015,10,21,16,39,12.50
2015,10,21,16,40,12.50
2015,10,21,16,41,12.50
2015,10,21,16,42,12.50
2015,10,21,16,43,12.50
2015,10,21,16,44,12.50
2015,10,21,16,45,12.60
2015,10,21,16,46,12.60
2015,10,21,16,47,12.60
2015,10,21,16,48,12.60
2015,10,21,16,49,12.60
2015,10,21,16,50,12.60
2015,10,21,16,51,12.50
2015,10,21,16,52,12.50
2015,10,21,16,53,12.50
2015,10,21,16,54,12.40
2015,10,21,16,55,12.40
2015,10,21,16,56,12.40
2015,10,21,16,57,12.40
2015,10,21,16,58,12.40
2015,10,21,16,59,12.40
2015,10,21,17,00,12.40
2015,10,21,17,01,12.30
2015,10,21,17,02,12.30
2015,10,21,17,03,12.30
2015,10,21,17,04,12.30
2015,10,21,17,05,12.30
2015,10,21,17,06,12.30
2015,10,21,17,07,12.30
2015,10,21,17,08,12.30
2015,10,21,17,09,12.30
2015,10,21,17,10,12.30
2015,10,21,17,11,12.30
2015,10,21,17,12,12.30
2015,10,21,17,13,12.30
2015,10,21,17,14,12.30
2015,10,21,17,15,12.20
2015,10,21,17,16,12.20
2015,10,21,17,17,12.20
2015,10,21,17,18,12.20
2015,10,21,17,19,12.20